Location: Cormont
(50.5693°N, 1.7416°E)
Time: 14:03:17
(UTC+00:00)

Cosmos 1725 Rocket - Pass Details

Date: 21 October 2019
Orbit: 963 x 990 km, 82.9° (Epoch: 18 November)

Event Time Altitude Azimuth Distance (km) Brightness Sun altitude
Rises 19:25:28 0° 350° (N) 3,692 7.3 -25.3°
Reaches altitude 10° 19:27:59 10° 351° (N) 2,744 6.6 -25.7°
Maximum altitude 19:34:18 87° 80° (E) 994 3.9 -26.7°
Enters shadow 19:36:08 50° 167° (SSE) 1,242 4.3 -26.9°
